Weather Roundup
Issued by NWS

Home | Current Version | Previous Version | Graphics & Text | Print | Product List | Glossary Off
Versions: 1 2 3 4 5 6 7 8 9 10 11 12 13 14 15 16 17 18 19 20 21 22 23 24 25 26 27 28 29 30 31 32 33 34 35 36 37 38 39 40 41 42 43 44 45 46 47 48 49 50

000
NZUS93 KARX 231959
HRRWXR

CURRENT HOURLY OBSERVATIONS ACROSS
MUCH OF THE UPPER MISSISSIPPI VALLEY
NATIONAL WEATHER SERVICE LA CROSSE WI
300 PM CDT TUE AUG 23 2016


...SOUTHEAST MINNESOTA...


CITY           SKY/WX    TMP DP  RH WIND       PRES   REMARKS
ROCHESTER      SUNNY     79  66  64 S17G29    29.99F
ROCHESTER/MAYO FAIR      80  64  56 SE10G21   29.98F
WINONA         MOSUNNY   81  64  57 S6G17     29.99S
AUSTIN         CLOUDY    79  63  57 S13G22    29.97S
ALBERT LEA     NOT AVBL
DODGE CENTER   MOSUNNY   79  64  61 S18G26    29.97F
PRESTON        CLOUDY    79  64  60 S18G25    30.01F
OWATONNA       CLOUDY    81  66  61 S16G23    29.94S
FARIBAULT      CLOUDY    81  70  69 S17G25    29.93F
$$

...ELSEWHERE IN MINNESOTA...


CITY           SKY/WX    TMP DP  RH WIND       PRES   REMARKS
MINNEAPOLIS    PTSUNNY   83  69  62 S15G21    29.90F
INTNL FALLS    PTSUNNY   80  66  62 SE13G20   29.76F
DULUTH         MOSUNNY   83  67  58 S20       29.89S
RED WING       CLOUDY    84  64  51 S10G20    29.93F
REDWOOD FALLS  CLOUDY    80  70  71 S15G24    29.85S
MANKATO        PTSUNNY   81  68  65 S17G28    29.90F
WORTHINGTON    TSTM      71  70  96 E14       29.84F FOG
FAIRMONT         N/A     77  70  79 SE17      29.88
$$

...SOUTHWEST WISCONSIN...


CITY           SKY/WX    TMP DP  RH WIND       PRES   REMARKS
LA CROSSE      PTSUNNY   85  72  65 S20       30.00F HX  91
PRAIRIE DU CHI MOSUNNY   82  61  49 SE12G18   30.04S
BOSCOBEL       MOSUNNY   84  63  49 S10G20    30.05F
LONE ROCK      NOT AVBL
PLATTEVILLE    MOSUNNY   79  66  64 S15G22    30.09F
FORT MC COY    MOSUNNY   82  64  53 S12G18    30.04F
MAUSTON-NEW LI PTCLDY    80  65  61 S8G16     30.05F
VIROQUA        FAIR      80  62  53 S12G20    30.06S
WIS DELLS      NOT AVBL
$$

...ELSEWHERE IN WISCONSIN...


CITY           SKY/WX    TMP DP  RH WIND       PRES   REMARKS
MILWAUKEE      PTSUNNY   82  59  45 S13G23    30.12F
MADISON        PTSUNNY   80  61  52 S20       30.09F
GREEN BAY      PTSUNNY   80  64  58 SW17G25   30.08F
EAU CLAIRE     NOT AVBL
BLACK RVR FLS  FAIR      82  62  51 S12       30.02S
MEDFORD        MOSUNNY   77  65  67 S14G20    30.03F
WAUSAU         MOSUNNY   79  62  56 S9        30.04F
WIS RAPIDS     SUNNY     83  64  52 S8G21     30.07F
MARSHFIELD     MOSUNNY   80  62  54 S14       30.04F
RICE LAKE      SUNNY     81  64  55 S16G22    29.98S
$$

...NORTHEAST IOWA...


CITY           SKY/WX    TMP DP  RH WIND       PRES   REMARKS
WATERLOO       CLOUDY    81  64  56 S18G25    29.99F
DUBUQUE        PTSUNNY   77  63  61 S17G24    30.08F
DECORAH        MOSUNNY   79  64  61 S14G23    30.02F
MASON CITY     CLOUDY    79  63  57 S16G25    29.98S
CHARLES CITY   CLOUDY    79  66  65 S15G25    30.00F
OELWEIN        MOSUNNY   77  64  65 S17G24    30.04F
$$

...ELSEWHERE IN IOWA...


CITY           SKY/WX    TMP DP  RH WIND       PRES   REMARKS
DES MOINES     CLOUDY    80  70  71 S16G24    29.97F
IOWA CITY      PTSUNNY   80  67  64 S15G22    30.07F
FORT DODGE     CLOUDY    81  66  61 SE15G25   29.93F
MARSHALLTOWN   MOSUNNY   81  68  64 S14       29.99F
CEDAR RAPIDS   MOSUNNY   81  70  69 S17G24    30.04F
$$

...NORTHERN ILLINOIS...


CITY           SKY/WX    TMP DP  RH WIND       PRES   REMARKS
CHICAGO-OHARE  MOSUNNY   79  60  52 S18       30.14F
CHICAGO-MIDWAY PTSUNNY   82  59  45 S16       30.15F
MOLINE         PTSUNNY   80  66  62 S14       30.09F
ROCKFORD       MOSUNNY   81  62  52 S18       30.14F
PEORIA         PTSUNNY   80  66  62 S17       30.13F
$$

NOTE: "FAIR" INDICATES FEW OR NO CLOUDS BELOW 12,000 FEET WITH NO
SIGNIFICANT WEATHER AND/OR OBSTRUCTIONS TO VISIBILITY. WIND
SPEEDS ARE IN MILES-PER-HOUR.




USA.gov is the U.S. government's official web portal to all federal, state and local government web resources and services.